"Pseudo-MPEC" for P12btTV

Created 2025 Jul 7 15:35:08 UT using Find_Orb

Click here for an explanation of pseudo-MPECs

 
 Astrometry: 
     P12btTV* C2025 07 02.57988322 25 48.763-46 21 19.46   ~72FZ 19.31wXNEOCPF51
     P12btTV  C2025 07 02.58627122 26 01.420-46 19 27.16   ~72FZ 19.56wXNEOCPF51
     P12btTV  C2025 07 02.59898622 26 26.621-46 15 42.15   ~72FZ 19.64wXNEOCPF51

Station data:
(F51) Pan-STARRS 1, Haleakala  (N20.707234 W156.255910)  US/Hawaii.
   Observers J. Bulger, T. Lowe, A. Schultz, M. Willman. Measurers K.
   Chambers, S. Chastel, T. de Boer, L. Denneau, J. Fairlamb, H. Flewelling,
   M. Huber, C.-C. Lin, E. Magnier, Y. Ramanjooloo, R. Wainscoat, R. Weryk.
   1.8-m Ritchey-Chrétien + CCD.

Orbital elements:  P12btTV
   Perihelion 2025 Aug 20.39225 +/- 25.9 TT =  9:24:50 (JD 2460907.89225)
Epoch 2025 Jul  3.0 TT = JDT 2460859.5   Earth MOID: 0.0027   Ma: 0.0443
M 333.24193239 +/- 26               (J2000 ecliptic)             AutoNEOCP
n   0.55294112 +/- 0.39             Peri.   55.84191 +/- 57
a   1.47011098 +/- 0.692            Node   286.62670 +/- 54
e   0.3973676 +/- 0.244             Incl.   11.09454 +/- 15
P   1.782/651.052d         H 24.91  G  0.15   U 12.1  SR
q 0.88593641 +/- 0.206    Q 2.05428556 +/- 31.8
From 3 observations 2025 July 2 (27.5 min); mean residual 0".04
Residuals in arcseconds: 
250702 F51  .03-  .05-    250702 F51  .05+  .07+    250702 F51  .02-  .02-    

Ephemerides (geocentric):
Date (UTC) HH   RA             Dec           delta  r     elong  mag " sig PA
---- --------  ------------   ------------  ------ ------ -----  --- --------
2025 07 07 16  01 44 15.740   +11 45 20.17  .02374 1.0115  77.0 20.5  61d 122
2025 07 07 17  01 45 39.012   +12 16 14.09  .02386 1.0113  76.6 20.6  60d 122
2025 07 07 18  01 47 01.787   +12 46 48.18  .02398 1.0111  76.1 20.6  60d 122
2025 07 07 19  01 48 24.065   +13 17 02.26  .02410 1.0109  75.7 20.6  60d 122
2025 07 07 20  01 49 45.844   +13 46 56.19  .02423 1.0107  75.2 20.7  60d 122
2025 07 07 21  01 51 07.124   +14 16 29.86  .02435 1.0105  74.8 20.7  60d 122
2025 07 07 22  01 52 27.903   +14 45 43.15  .02448 1.0103  74.4 20.7  60d 122
2025 07 07 23  01 53 48.181   +15 14 36.01  .02462 1.0101  73.9 20.8  60d 123
2025 07 08 00  01 55 07.958   +15 43 08.36  .02475 1.0099  73.5 20.8  60d 123
2025 07 08 01  01 56 27.232   +16 11 20.16  .02489 1.0096  73.1 20.8  60d 123
2025 07 08 02  01 57 46.005   +16 39 11.40  .02503 1.0094  72.7 20.9  59d 123
2025 07 08 03  01 59 04.275   +17 06 42.06  .02517 1.0092  72.3 20.9  59d 123
2025 07 08 04  02 00 22.044   +17 33 52.17  .02532 1.0090  71.9 20.9  59d 123
2025 07 08 05  02 01 39.310   +18 00 41.74  .02546 1.0088  71.5 21.0  59d 123
2025 07 08 06  02 02 56.075   +18 27 10.82  .02561 1.0086  71.1 21.0  59d 123
2025 07 08 07  02 04 12.339   +18 53 19.47  .02577 1.0084  70.7 21.0  59d 123
2025 07 08 08  02 05 28.102   +19 19 07.75  .02592 1.0082  70.3 21.1  59d 123
2025 07 08 09  02 06 43.365   +19 44 35.75  .02608 1.0080  70.0 21.1  58d 123
2025 07 08 10  02 07 58.128   +20 09 43.56  .02623 1.0078  69.6 21.1  58d 123
2025 07 08 11  02 09 12.394   +20 34 31.29  .02639 1.0075  69.2 21.2  58d 123
2025 07 08 12  02 10 26.162   +20 58 59.06  .02656 1.0073  68.9 21.2  58d 123
2025 07 08 13  02 11 39.433   +21 23 06.99  .02672 1.0071  68.5 21.2  58d 123
2025 07 08 14  02 12 52.210   +21 46 55.22  .02689 1.0069  68.2 21.3  58d 123
2025 07 08 15  02 14 04.492   +22 10 23.90  .02705 1.0067  67.9 21.3  58d 123
2025 07 08 16  02 15 16.282   +22 33 33.17  .02722 1.0065  67.5 21.3  57d 123
2025 07 08 17  02 16 27.581   +22 56 23.20  .02739 1.0063  67.2 21.4  57d 123
2025 07 08 18  02 17 38.390   +23 18 54.15  .02757 1.0061  66.9 21.4  57d 123
2025 07 08 19  02 18 48.711   +23 41 06.21  .02774 1.0059  66.6 21.4  57d 123
2025 07 08 20  02 19 58.546   +24 02 59.54  .02792 1.0057  66.2 21.5  57d 123
2025 07 08 21  02 21 07.896   +24 24 34.34  .02810 1.0055  65.9 21.5  57d 123
2025 07 08 22  02 22 16.763   +24 45 50.79  .02828 1.0053  65.6 21.5  57d 123
2025 07 08 23  02 23 25.149   +25 06 49.08  .02846 1.0050  65.3 21.6  56d 124
2025 07 09 00  02 24 33.057   +25 27 29.42  .02864 1.0048  65.0 21.6  56d 124
2025 07 09 01  02 25 40.487   +25 47 52.01  .02883 1.0046  64.8 21.6  56d 124
2025 07 09 02  02 26 47.443   +26 07 57.05  .02902 1.0044  64.5 21.7  56d 124
2025 07 09 03  02 27 53.925   +26 27 44.74  .02920 1.0042  64.2 21.7  56d 124
2025 07 09 04  02 28 59.938   +26 47 15.30  .02939 1.0040  63.9 21.7  56d 124
2025 07 09 05  02 30 05.481   +27 06 28.94  .02958 1.0038  63.6 21.7  56d 124
2025 07 09 06  02 31 10.559   +27 25 25.87  .02978 1.0036  63.4 21.8  55d 124
2025 07 09 07  02 32 15.174   +27 44 06.31  .02997 1.0034  63.1 21.8  55d 124
2025 07 09 08  02 33 19.327   +28 02 30.46  .03017 1.0032  62.9 21.8  55d 124
2025 07 09 09  02 34 23.021   +28 20 38.55  .03036 1.0030  62.6 21.9  55d 124
2025 07 09 10  02 35 26.259   +28 38 30.79  .03056 1.0028  62.4 21.9  55d 124
2025 07 09 11  02 36 29.043   +28 56 07.40  .03076 1.0026  62.1 21.9  55d 124
2025 07 09 12  02 37 31.375   +29 13 28.59  .03096 1.0024  61.9 22.0  55d 124
2025 07 09 13  02 38 33.259   +29 30 34.58  .03116 1.0021  61.6 22.0  55d 124
2025 07 09 14  02 39 34.697   +29 47 25.58  .03137 1.0019  61.4 22.0  54d 124
2025 07 09 15  02 40 35.692   +30 04 01.82  .03157 1.0017  61.2 22.0  54d 124